This is the latest recevied weather packets stored in our database for station/object KB9GXK. If no packets are shown the sender has not sent any weather packets the latest 1 day(s).
| Time | Temp. | Humidity | Pressure | Rain* | Wind** | Luminosity | Snow |
|---|---|---|---|---|---|---|---|
| 1777980989 | 8.89° C | 47% | 1008.5 hPa | 0 mm | 0.45 m/s, 335° | 10 W/m² | - |
| 1777980686 | 8.89° C | 48% | 1008 hPa | 0 mm | 0.45 m/s, 277° | 9 W/m² | - |
| 1777980382 | 8.89° C | 50% | 1007.3 hPa | 0 mm | 0.45 m/s, 329° | 18 W/m² | - |
| 1777980080 | 8.89° C | 48% | 1007.1 hPa | 0 mm | 0.89 m/s, 306° | 14 W/m² | - |
| 1777979774 | 8.89° C | 49% | 1007.4 hPa | 0 mm | 0.45 m/s, 344° | 12 W/m² | - |
| 1777979470 | 8.89° C | 49% | 1007.8 hPa | 0 mm | 0.45 m/s, 273° | 8 W/m² | - |
| 1777979167 | 8.89° C | 50% | 1007.9 hPa | 0 mm | 0 m/s | 4 W/m² | - |
| 1777978864 | 8.89° C | 50% | 1007.9 hPa | 0 mm | 0.45 m/s, 342° | 1 W/m² | - |
| 1777978560 | 8.89° C | 50% | 1008 hPa | 0 mm | 0.89 m/s, 288° | 1 W/m² | - |
| 1777978256 | 8.89° C | 50% | 1008 hPa | 0 mm | 0.45 m/s, 222° | 1 W/m² | - |
| 1777977953 | 8.89° C | 50% | 1008.3 hPa | 0 mm | 0.89 m/s, 319° | 1 W/m² | - |
| 1777977651 | 8.89° C | 49% | 1007.3 hPa | 0 mm | 1.34 m/s, 296° | 0 W/m² | - |
| 1777977347 | 8.89° C | 49% | 1007.3 hPa | 0 mm | 0.89 m/s, 273° | 0 W/m² | - |
| 1777977045 | 9.44° C | 50% | 1007.4 hPa | 0 mm | 0.89 m/s, 296° | 0 W/m² | - |
| 1777976742 | 9.44° C | 50% | 1007.4 hPa | 0 mm | 0.89 m/s, 329° | 0 W/m² | - |
| 1777976439 | 9.44° C | 50% | 1007.2 hPa | 0 mm | 0.45 m/s, 331° | 0 W/m² | - |
| 1777976137 | 8.89° C | 51% | 1007.2 hPa | 0 mm | 0.45 m/s, 278° | 0 W/m² | - |
| 1777975833 | 9.44° C | 51% | 1006.7 hPa | 0 mm | 0.45 m/s, 348° | 0 W/m² | - |
| 1777975531 | 9.44° C | 50% | 1006.6 hPa | 0 mm | 0.45 m/s, 328° | 0 W/m² | - |
| 1777975227 | 9.44° C | 50% | 1006.9 hPa | 0 mm | 0 m/s | 0 W/m² | - |
| 1777974924 | 9.44° C | 49% | 1007 hPa | 0 mm | 0.45 m/s, 292° | 0 W/m² | - |
| 1777974620 | 9.44° C | 48% | 1007 hPa | 0 mm | 0.45 m/s, 334° | 0 W/m² | - |
| 1777974317 | 10° C | 48% | 1006.9 hPa | 0 mm | 0.45 m/s, 303° | 0 W/m² | - |
| 1777974013 | 10° C | 49% | 1006.7 hPa | 0 mm | 0.89 m/s, 10° | 0 W/m² | - |
| 1777973709 | 9.44° C | 49% | 1006.6 hPa | 0 mm | 1.34 m/s, 306° | 0 W/m² | - |
* Rain latest hour (hover to see other rain measurements)
** Current wind speed in m/s (hover to see current wind gust speed)